Time,TemperatureF,DewpointF,PressureIn,WindDirection,WindDirectionDegrees,WindSpeedMPH,WindSpeedGustMPH,Humidity,HourlyPrecipIn,Conditions,Clouds,dailyrainin,SoftwareType,DateUTC
2013-06-18 00:04:00,71.2,60.1,29.91,NE,44,4.0,4.0,68,0.00,,,0.00,WeatherDisplay:10.36,2013-06-18 05:04:00,
2013-06-18 00:09:00,71.1,60.4,29.91,NE,43,4.9,4.9,69,0.00,,,0.00,WeatherDisplay:10.36,2013-06-18 05:09:00,
2013-06-18 00:14:00,70.9,60.2,29.91,NE,43,4.6,4.6,69,0.00,,,0.00,WeatherDisplay:10.36,2013-06-18 05:14:00,
2013-06-18 00:19:00,70.7,60.0,29.91,NE,45,4.6,4.6,69,0.00,,,0.00,WeatherDisplay:10.36,2013-06-18 05:19:00,
2013-06-18 00:24:00,70.7,60.0,29.91,NE,44,5.8,5.8,69,0.00,,,0.00,WeatherDisplay:10.36,2013-06-18 05:24:00,
2013-06-18 00:29:00,70.5,60.3,29.91,NE,45,4.6,4.6,70,0.00,,,0.00,WeatherDisplay:10.36,2013-06-18 05:29:00,
2013-06-18 00:34:00,70.3,60.1,29.91,NE,43,4.9,4.9,70,0.00,,,0.00,WeatherDisplay:10.36,2013-06-18 05:34:00,
2013-06-18 00:39:00,70.3,60.1,29.91,NE,43,4.6,4.6,70,0.00,,,0.00,WeatherDisplay:10.36,2013-06-18 05:39:00,
2013-06-18 00:44:00,70.2,59.9,29.91,NE,43,4.6,4.6,70,0.00,,,0.00,WeatherDisplay:10.36,2013-06-18 05:44:00,
2013-06-18 00:49:00,70.2,59.9,29.91,NE,44,4.6,4.6,70,0.00,,,0.00,WeatherDisplay:10.36,2013-06-18 05:49:00,
2013-06-18 00:54:00,70.0,59.7,29.91,NE,43,4.0,4.0,70,0.00,,,0.00,WeatherDisplay:10.36,2013-06-18 05:54:00,
2013-06-18 00:59:00,70.0,59.7,29.91,NE,43,3.6,3.6,70,0.00,,,0.00,WeatherDisplay:10.36,2013-06-18 05:59:00,
2013-06-18 01:04:00,69.8,60.0,29.91,NE,41,3.5,3.5,71,0.00,,,0.00,WeatherDisplay:10.36,2013-06-18 06:04:00,
2013-06-18 01:09:00,69.6,59.8,29.91,NE,43,4.0,4.0,71,0.00,,,0.00,WeatherDisplay:10.36,2013-06-18 06:09:00,
2013-06-18 01:14:00,69.6,59.8,29.91,NE,44,4.6,4.6,71,0.00,,,0.00,WeatherDisplay:10.36,2013-06-18 06:14:00,
2013-06-18 01:19:00,69.6,59.8,29.91,NE,44,3.6,3.6,71,0.00,,,0.00,WeatherDisplay:10.36,2013-06-18 06:19:00,
2013-06-18 01:24:00,69.4,59.6,29.91,NE,43,4.0,4.0,71,0.00,,,0.00,WeatherDisplay:10.36,2013-06-18 06:24:00,
2013-06-18 01:29:00,69.3,59.8,29.91,NE,44,3.6,3.6,72,0.00,,,0.00,WeatherDisplay:10.36,2013-06-18 06:29:00,
2013-06-18 01:34:00,69.3,59.8,29.91,NE,43,4.0,4.0,72,0.00,,,0.00,WeatherDisplay:10.36,2013-06-18 06:34:00,
2013-06-18 01:39:00,69.1,59.7,29.91,NE,44,4.0,4.0,72,0.00,,,0.00,WeatherDisplay:10.36,2013-06-18 06:39:00,
2013-06-18 01:44:00,69.1,59.7,29.91,NE,44,4.0,4.0,72,0.00,,,0.00,WeatherDisplay:10.36,2013-06-18 06:44:00,
2013-06-18 01:49:00,68.9,59.9,29.91,NE,45,4.5,4.5,73,0.00,,,0.00,WeatherDisplay:10.36,2013-06-18 06:49:00,
2013-06-18 01:54:00,68.9,59.9,29.91,NE,44,3.6,3.6,73,0.00,,,0.00,WeatherDisplay:10.36,2013-06-18 06:54:00,
2013-06-18 01:59:00,68.7,60.1,29.91,NE,44,4.0,4.0,74,0.00,,,0.00,WeatherDisplay:10.36,2013-06-18 06:59:00,
2013-06-18 02:04:00,68.5,59.9,29.91,NE,44,4.0,4.0,74,0.00,,,0.00,WeatherDisplay:10.36,2013-06-18 07:04:00,
2013-06-18 02:09:00,68.5,59.9,29.91,NE,44,3.6,3.6,74,0.00,,,0.00,WeatherDisplay:10.36,2013-06-18 07:09:00,
2013-06-18 02:14:00,68.4,60.1,29.91,NE,44,4.0,4.0,75,0.00,,,0.00,WeatherDisplay:10.36,2013-06-18 07:14:00,
2013-06-18 02:19:00,68.4,60.1,29.91,NE,44,3.6,3.6,75,0.00,,,0.00,WeatherDisplay:10.36,2013-06-18 07:19:00,
2013-06-18 02:24:00,68.4,60.1,29.91,NE,44,3.6,3.6,75,0.00,,,0.00,WeatherDisplay:10.36,2013-06-18 07:24:00,
2013-06-18 02:29:00,68.2,60.0,29.91,NE,42,4.9,4.9,75,0.00,,,0.00,WeatherDisplay:10.36,2013-06-18 07:29:00,
2013-06-18 02:34:00,68.2,60.3,29.91,NE,44,4.5,4.5,76,0.00,,,0.00,WeatherDisplay:10.36,2013-06-18 07:34:00,
2013-06-18 02:39:00,68.0,60.2,29.91,NE,44,3.5,0.0,76,0.00,,,0.00,WeatherDisplay:10.36,2013-06-18 07:39:00,
2013-06-18 02:44:00,68.0,60.2,29.91,NE,44,4.6,0.0,76,0.00,,,0.00,WeatherDisplay:10.36,2013-06-18 07:44:00,
2013-06-18 02:49:00,67.8,60.3,29.91,NE,45,3.6,3.6,77,0.00,,,0.00,WeatherDisplay:10.36,2013-06-18 07:49:00,
2013-06-18 02:54:00,67.8,60.3,29.91,NE,44,2.7,0.0,77,0.00,,,0.00,WeatherDisplay:10.36,2013-06-18 07:54:00,
2013-06-18 02:59:00,67.8,60.3,29.91,NE,42,3.6,0.0,77,0.00,,,0.00,WeatherDisplay:10.36,2013-06-18 07:59:00,
2013-06-18 03:04:00,67.8,60.7,29.91,NE,43,4.0,4.0,78,0.00,,,0.00,WeatherDisplay:10.36,2013-06-18 08:04:00,
2013-06-18 03:09:00,67.6,60.5,29.91,NE,45,4.0,4.0,78,0.00,,,0.00,WeatherDisplay:10.36,2013-06-18 08:09:00,
2013-06-18 03:14:00,67.6,60.5,29.91,NE,45,4.0,4.0,78,0.00,,,0.00,WeatherDisplay:10.36,2013-06-18 08:14:00,
2013-06-18 03:19:00,67.6,60.5,29.91,NE,44,4.0,4.0,78,0.00,,,0.00,WeatherDisplay:10.36,2013-06-18 08:19:00,
2013-06-18 03:24:00,67.6,60.9,29.91,NE,43,3.5,3.5,79,0.00,,,0.00,WeatherDisplay:10.36,2013-06-18 08:24:00,
2013-06-18 03:29:00,67.5,60.7,29.91,NE,43,3.5,0.0,79,0.00,,,0.00,WeatherDisplay:10.36,2013-06-18 08:29:00,
2013-06-18 03:34:00,67.5,60.7,29.91,NE,44,3.5,3.5,79,0.00,,,0.00,WeatherDisplay:10.36,2013-06-18 08:34:00,
2013-06-18 03:39:00,67.5,60.7,29.91,NE,44,3.5,0.0,79,0.00,,,0.00,WeatherDisplay:10.36,2013-06-18 08:39:00,
2013-06-18 03:44:00,67.3,60.5,29.91,NE,43,3.6,3.6,79,0.00,,,0.00,WeatherDisplay:10.36,2013-06-18 08:44:00,
2013-06-18 03:49:00,67.3,60.9,29.91,NE,43,3.6,3.6,80,0.00,,,0.00,WeatherDisplay:10.36,2013-06-18 08:49:00,
2013-06-18 03:54:00,67.1,60.7,29.91,NE,44,4.5,4.5,80,0.00,,,0.00,WeatherDisplay:10.36,2013-06-18 08:54:00,
2013-06-18 03:59:00,67.1,60.7,29.91,NE,44,5.4,5.4,80,0.00,,,0.00,WeatherDisplay:10.36,2013-06-18 08:59:00,
2013-06-18 04:04:00,67.1,61.1,29.91,NE,44,4.6,4.6,81,0.00,,,0.00,WeatherDisplay:10.36,2013-06-18 09:04:00,
2013-06-18 04:09:00,66.9,60.9,29.91,NE,45,3.5,0.0,81,0.00,,,0.00,WeatherDisplay:10.36,2013-06-18 09:09:00,
2013-06-18 04:14:00,66.9,60.9,29.91,NE,43,3.5,3.5,81,0.00,,,0.00,WeatherDisplay:10.36,2013-06-18 09:14:00,
2013-06-18 04:19:00,67.1,61.1,29.91,NE,44,3.6,3.6,81,0.00,,,0.00,WeatherDisplay:10.36,2013-06-18 09:19:00,
2013-06-18 04:24:00,67.1,61.1,29.91,NE,44,3.6,3.6,81,0.00,,,0.00,WeatherDisplay:10.36,2013-06-18 09:24:00,
2013-06-18 04:29:00,67.3,61.2,29.91,NE,45,3.5,3.5,81,0.00,,,0.00,WeatherDisplay:10.36,2013-06-18 09:29:00,
2013-06-18 04:34:00,67.5,61.4,29.91,NE,43,3.6,0.0,81,0.00,,,0.00,WeatherDisplay:10.36,2013-06-18 09:34:00,
2013-06-18 04:39:00,67.5,61.4,29.91,NE,43,3.6,3.6,81,0.00,,,0.00,WeatherDisplay:10.36,2013-06-18 09:39:00,
2013-06-18 04:44:00,67.6,61.6,29.91,NE,44,4.0,4.0,81,0.00,,,0.00,WeatherDisplay:10.36,2013-06-18 09:44:00,
2013-06-18 04:49:00,67.6,61.6,29.91,NE,43,4.0,4.0,81,0.00,,,0.00,WeatherDisplay:10.36,2013-06-18 09:49:00,
2013-06-18 04:54:00,67.8,61.8,29.91,NE,44,4.0,4.0,81,0.00,,,0.00,WeatherDisplay:10.36,2013-06-18 09:54:00,
2013-06-18 04:59:00,67.8,61.8,29.91,NE,44,4.0,4.0,81,0.00,,,0.00,WeatherDisplay:10.36,2013-06-18 09:59:00,
2013-06-18 05:04:00,67.8,61.8,29.94,NE,44,3.6,3.6,81,0.00,,,0.00,WeatherDisplay:10.36,2013-06-18 10:04:00,
2013-06-18 05:09:00,68.0,61.9,29.94,NE,45,3.1,0.0,81,0.00,,,0.00,WeatherDisplay:10.36,2013-06-18 10:09:00,
2013-06-18 05:15:00,68.0,61.9,29.94,NE,45,3.1,0.0,81,0.00,,,0.00,WeatherDisplay:10.36,2013-06-18 10:15:00,
2013-06-18 05:20:00,68.2,62.1,29.94,NE,45,3.6,3.6,81,0.00,,,0.00,WeatherDisplay:10.36,2013-06-18 10:20:00,
2013-06-18 05:26:00,68.4,62.3,29.94,NE,45,3.6,3.6,81,0.00,,,0.00,WeatherDisplay:10.36,2013-06-18 10:26:00,
2013-06-18 05:31:00,68.5,62.5,29.94,NE,45,3.6,3.6,81,0.00,,,0.00,WeatherDisplay:10.36,2013-06-18 10:31:00,
2013-06-18 05:36:00,68.7,63.0,29.94,NE,44,4.0,0.0,82,0.00,,,0.00,WeatherDisplay:10.36,2013-06-18 10:36:00,
2013-06-18 05:41:00,68.9,62.8,29.94,NE,46,4.6,4.6,81,0.00,,,0.00,WeatherDisplay:10.36,2013-06-18 10:41:00,
2013-06-18 05:46:00,69.1,63.4,29.94,NE,43,3.1,0.0,82,0.00,,,0.00,WeatherDisplay:10.36,2013-06-18 10:46:00,
2013-06-18 05:51:00,69.1,63.4,29.94,NE,42,0.0,0.0,82,0.00,,,0.00,WeatherDisplay:10.36,2013-06-18 10:51:00,
2013-06-18 05:56:00,69.1,63.4,29.94,NE,44,0.0,0.0,82,0.00,,,0.00,WeatherDisplay:10.36,2013-06-18 10:56:00,
2013-06-18 06:02:00,69.3,63.5,29.94,NE,43,0.0,0.0,82,0.00,,,0.00,WeatherDisplay:10.36,2013-06-18 11:02:00,
2013-06-18 06:07:00,69.3,63.9,29.94,NE,43,0.0,0.0,83,0.00,,,0.00,WeatherDisplay:10.36,2013-06-18 11:07:00,
2013-06-18 06:12:00,69.3,63.9,29.94,NE,43,0.0,0.0,83,0.00,,,0.00,WeatherDisplay:10.36,2013-06-18 11:12:00,
2013-06-18 06:17:00,69.3,63.9,29.94,NE,43,0.0,0.0,83,0.00,,,0.00,WeatherDisplay:10.36,2013-06-18 11:17:00,
2013-06-18 06:22:00,69.4,64.0,29.94,NE,43,3.5,0.0,83,0.00,,,0.00,WeatherDisplay:10.36,2013-06-18 11:22:00,
2013-06-18 06:27:00,69.4,64.0,29.94,NE,43,0.0,0.0,83,0.00,,,0.00,WeatherDisplay:10.36,2013-06-18 11:27:00,
2013-06-18 06:32:00,69.4,64.0,29.94,NE,45,0.0,0.0,83,0.00,,,0.00,WeatherDisplay:10.36,2013-06-18 11:32:00,
2013-06-18 06:37:00,69.4,64.0,29.94,NE,44,0.0,0.0,83,0.00,,,0.00,WeatherDisplay:10.36,2013-06-18 11:37:00,
2013-06-18 06:42:00,69.6,64.2,29.94,NE,45,0.0,0.0,83,0.00,,,0.00,WeatherDisplay:10.36,2013-06-18 11:42:00,
2013-06-18 06:47:00,69.8,64.4,29.94,NE,46,0.0,0.0,83,0.00,,,0.00,WeatherDisplay:10.36,2013-06-18 11:47:00,
2013-06-18 06:52:00,69.8,64.7,29.94,NE,45,0.0,0.0,84,0.00,,,0.00,WeatherDisplay:10.36,2013-06-18 11:52:00,
2013-06-18 06:57:00,70.0,64.9,29.94,NE,45,0.0,0.0,84,0.00,,,0.00,WeatherDisplay:10.36,2013-06-18 11:57:00,
2013-06-18 07:02:00,70.3,65.3,29.94,NE,46,4.5,4.5,84,0.00,,,0.00,WeatherDisplay:10.36,2013-06-18 12:02:00,
2013-06-18 07:07:00,70.3,65.3,29.94,NE,46,0.0,0.0,84,0.00,,,0.00,WeatherDisplay:10.36,2013-06-18 12:07:00,
2013-06-18 07:13:00,70.5,65.4,29.94,NE,40,0.0,0.0,84,0.00,,,0.00,WeatherDisplay:10.36,2013-06-18 12:13:00,
2013-06-18 07:18:00,70.7,65.6,29.94,NE,41,0.0,0.0,84,0.00,,,0.00,WeatherDisplay:10.36,2013-06-18 12:18:00,
2013-06-18 07:23:00,70.9,65.8,29.94,NE,43,0.0,0.0,84,0.00,,,0.00,WeatherDisplay:10.36,2013-06-18 12:23:00,
2013-06-18 07:28:00,71.1,66.0,29.94,NE,43,0.0,0.0,84,0.00,,,0.00,WeatherDisplay:10.36,2013-06-18 12:28:00,
2013-06-18 07:33:00,71.2,66.2,29.94,NE,46,2.7,0.0,84,0.00,,,0.00,WeatherDisplay:10.36,2013-06-18 12:33:00,
2013-06-18 07:38:00,71.4,66.3,29.94,NE,40,3.5,0.0,84,0.00,,,0.00,WeatherDisplay:10.36,2013-06-18 12:38:00,
2013-06-18 07:43:00,71.6,66.5,29.94,NE,41,0.0,0.0,84,0.00,,,0.00,WeatherDisplay:10.36,2013-06-18 12:43:00,
2013-06-18 07:48:00,71.8,66.7,29.94,NE,35,0.0,0.0,84,0.00,,,0.00,WeatherDisplay:10.36,2013-06-18 12:48:00,
2013-06-18 07:53:00,71.8,66.3,29.94,NE,40,0.0,0.0,83,0.00,,,0.00,WeatherDisplay:10.36,2013-06-18 12:53:00,
2013-06-18 07:58:00,72.0,66.5,29.94,NE,43,0.0,0.0,83,0.00,,,0.00,WeatherDisplay:10.36,2013-06-18 12:58:00,
2013-06-18 08:03:00,72.1,66.7,29.94,NE,44,0.0,0.0,83,0.00,,,0.00,WeatherDisplay:10.36,2013-06-18 13:03:00,
2013-06-18 08:08:00,72.3,66.5,29.94,NNE,27,0.0,0.0,82,0.00,,,0.00,WeatherDisplay:10.36,2013-06-18 13:08:00,
2013-06-18 08:13:00,72.5,66.3,29.94,NNE,27,0.0,0.0,81,0.00,,,0.00,WeatherDisplay:10.36,2013-06-18 13:13:00,
2013-06-18 08:18:00,72.7,66.2,29.94,NE,43,3.5,0.0,80,0.00,,,0.00,WeatherDisplay:10.36,2013-06-18 13:18:00,
2013-06-18 08:23:00,72.9,66.0,29.94,NE,42,0.0,0.0,79,0.00,,,0.00,WeatherDisplay:10.36,2013-06-18 13:23:00,
2013-06-18 08:28:00,73.0,66.1,29.94,NE,44,0.0,0.0,79,0.00,,,0.00,WeatherDisplay:10.36,2013-06-18 13:28:00,
2013-06-18 08:33:00,73.2,65.9,29.94,NE,44,0.0,0.0,78,0.00,,,0.00,WeatherDisplay:10.36,2013-06-18 13:33:00,
2013-06-18 08:38:00,73.8,66.1,29.94,NE,43,0.0,0.0,77,0.00,,,0.00,WeatherDisplay:10.36,2013-06-18 13:38:00,
2013-06-18 08:43:00,74.5,66.8,29.94,NE,43,0.0,0.0,77,0.00,,,0.00,WeatherDisplay:10.36,2013-06-18 13:43:00,
2013-06-18 08:48:00,75.2,66.7,29.94,NE,43,2.7,0.0,75,0.00,,,0.00,WeatherDisplay:10.36,2013-06-18 13:48:00,
2013-06-18 08:53:00,76.1,67.2,29.94,NE,43,4.0,4.0,74,0.00,,,0.00,WeatherDisplay:10.36,2013-06-18 13:53:00,
2013-06-18 08:58:00,76.8,66.3,29.94,NE,43,0.0,0.0,70,0.00,,,0.00,WeatherDisplay:10.36,2013-06-18 13:58:00,
2013-06-18 09:03:00,77.5,65.7,29.94,NE,43,0.0,0.0,67,0.00,,,0.00,WeatherDisplay:10.36,2013-06-18 14:03:00,
2013-06-18 09:08:00,78.1,64.5,29.94,NE,43,5.8,5.8,63,0.00,,,0.00,WeatherDisplay:10.36,2013-06-18 14:08:00,
2013-06-18 09:13:00,78.3,60.2,29.94,NE,43,5.8,5.8,54,0.00,,,0.00,WeatherDisplay:10.36,2013-06-18 14:13:00,
2013-06-18 09:18:00,78.6,61.1,30.76,North,351,3.5,0.0,55,0.00,,,0.00,WeatherDisplay:10.36,2013-06-18 14:18:00,
2013-06-18 09:23:00,78.8,60.7,30.76,South,175,6.9,6.9,54,0.00,,,0.00,WeatherDisplay:10.36,2013-06-18 14:23:00,
2013-06-18 09:28:00,79.0,59.3,30.76,NNE,27,0.0,0.0,51,0.00,,,0.00,WeatherDisplay:10.36,2013-06-18 14:28:00,
2013-06-18 09:33:00,79.2,60.0,29.94,North,351,4.6,4.6,52,0.00,,,0.00,WeatherDisplay:10.36,2013-06-18 14:33:00,
2013-06-18 09:38:00,79.5,60.9,29.94,NE,44,4.0,0.0,53,0.00,,,0.00,WeatherDisplay:10.36,2013-06-18 14:38:00,
2013-06-18 09:43:00,79.9,60.1,29.94,North,351,4.6,4.6,51,0.00,,,0.00,WeatherDisplay:10.36,2013-06-18 14:43:00,
2013-06-18 09:48:00,80.4,61.2,29.94,NE,42,0.0,0.0,52,0.00,,,0.00,WeatherDisplay:10.36,2013-06-18 14:48:00,
2013-06-18 09:53:00,80.6,60.2,29.94,North,351,3.5,0.0,50,0.00,,,0.00,WeatherDisplay:10.36,2013-06-18 14:53:00,
2013-06-18 09:58:00,81.0,60.0,29.94,NE,45,0.0,0.0,49,0.00,,,0.00,WeatherDisplay:10.36,2013-06-18 14:58:00,
2013-06-18 10:03:00,81.1,59.6,29.94,NE,40,0.0,0.0,48,0.00,,,0.00,WeatherDisplay:10.36,2013-06-18 15:03:00,
2013-06-18 10:08:00,81.1,57.8,29.94,NE,44,6.3,0.0,45,0.00,,,0.00,WeatherDisplay:10.36,2013-06-18 15:08:00,
2013-06-18 10:13:00,81.5,56.8,29.94,NE,40,0.0,0.0,43,0.00,,,0.00,WeatherDisplay:10.36,2013-06-18 15:13:00,
2013-06-18 10:18:00,81.9,57.2,29.94,NE,42,0.0,0.0,43,0.00,,,0.00,WeatherDisplay:10.36,2013-06-18 15:18:00,
2013-06-18 10:23:00,82.2,56.8,29.94,North,351,5.8,0.0,42,0.00,,,0.00,WeatherDisplay:10.36,2013-06-18 15:23:00,
2013-06-18 10:28:00,82.4,56.3,29.94,North,351,0.0,0.0,41,0.00,,,0.00,WeatherDisplay:10.36,2013-06-18 15:28:00,
2013-06-18 10:33:00,82.4,55.0,29.97,North,351,7.4,7.4,39,0.00,,,0.00,WeatherDisplay:10.36,2013-06-18 15:33:00,
2013-06-18 10:38:00,82.4,55.7,29.97,NE,41,2.3,0.0,40,0.00,,,0.00,WeatherDisplay:10.36,2013-06-18 15:38:00,
2013-06-18 10:43:00,82.4,52.8,29.97,North,351,7.4,7.4,36,0.00,,,0.00,WeatherDisplay:10.36,2013-06-18 15:43:00,
2013-06-18 10:48:00,82.2,52.6,30.76,North,351,4.9,0.0,36,0.00,,,0.00,WeatherDisplay:10.36,2013-06-18 15:48:00,
2013-06-18 10:53:00,82.0,52.4,30.76,NE,42,5.8,5.8,36,0.00,,,0.00,WeatherDisplay:10.36,2013-06-18 15:53:00,
2013-06-18 10:58:00,82.2,54.1,30.76,NE,44,0.0,0.0,38,0.00,,,0.00,WeatherDisplay:10.36,2013-06-18 15:58:00,
2013-06-18 11:03:00,82.4,54.2,29.97,NE,44,4.9,4.9,38,0.00,,,0.00,WeatherDisplay:10.36,2013-06-18 16:03:00,
2013-06-18 11:08:00,82.8,52.3,29.97,North,351,5.8,5.8,35,0.00,,,0.00,WeatherDisplay:10.36,2013-06-18 16:08:00,
2013-06-18 11:13:00,83.1,53.4,29.97,NE,43,4.5,0.0,36,0.00,,,0.00,WeatherDisplay:10.36,2013-06-18 16:13:00,
2013-06-18 11:18:00,83.3,53.6,29.97,NE,44,3.6,3.6,36,0.00,,,0.00,WeatherDisplay:10.36,2013-06-18 16:18:00,
2013-06-18 11:23:00,83.5,49.7,29.97,NE,41,4.6,4.6,31,0.00,,,0.00,WeatherDisplay:10.36,2013-06-18 16:23:00,
2013-06-18 11:28:00,83.7,51.5,29.97,NE,42,3.6,3.6,33,0.00,,,0.00,WeatherDisplay:10.36,2013-06-18 16:28:00,
2013-06-18 11:33:00,83.8,52.5,29.97,NE,42,0.0,0.0,34,0.00,,,0.00,WeatherDisplay:10.36,2013-06-18 16:33:00,
2013-06-18 11:38:00,84.0,53.4,29.97,NE,44,6.3,6.3,35,0.00,,,0.00,WeatherDisplay:10.36,2013-06-18 16:38:00,
2013-06-18 11:43:00,83.8,49.1,29.97,NE,41,6.9,0.0,30,0.00,,,0.00,WeatherDisplay:10.36,2013-06-18 16:43:00,
2013-06-18 11:48:00,84.0,50.1,29.97,NE,41,0.0,0.0,31,0.00,,,0.00,WeatherDisplay:10.36,2013-06-18 16:48:00,
2013-06-18 11:53:00,84.0,47.4,29.97,North,351,10.9,10.9,28,0.00,,,0.00,WeatherDisplay:10.36,2013-06-18 16:53:00,
2013-06-18 11:58:00,84.0,48.3,29.97,NE,39,5.8,5.8,29,0.00,,,0.00,WeatherDisplay:10.36,2013-06-18 16:58:00,
2013-06-18 12:03:00,84.2,48.5,30.79,NNW,335,6.9,6.9,29,0.00,,,0.00,WeatherDisplay:10.36,2013-06-18 17:03:00,
2013-06-18 12:08:00,84.4,50.4,30.79,NNE,28,4.6,4.6,31,0.00,,,0.00,WeatherDisplay:10.36,2013-06-18 17:08:00,
2013-06-18 12:13:00,84.4,48.6,30.79,NE,44,5.8,5.8,29,0.00,,,0.00,WeatherDisplay:10.36,2013-06-18 17:13:00,
2013-06-18 12:18:00,84.6,46.9,29.97,NE,43,4.6,4.6,27,0.00,,,0.00,WeatherDisplay:10.36,2013-06-18 17:18:00,
2013-06-18 12:23:00,84.4,46.7,29.97,NE,41,9.2,9.2,27,0.00,,,0.00,WeatherDisplay:10.36,2013-06-18 17:23:00,
2013-06-18 12:28:00,84.6,48.8,29.97,NE,43,8.1,8.1,29,0.00,,,0.00,WeatherDisplay:10.36,2013-06-18 17:28:00,
2013-06-18 12:33:00,84.7,49.0,29.97,NE,34,2.7,0.0,29,0.00,,,0.00,WeatherDisplay:10.36,2013-06-18 17:33:00,
2013-06-18 12:38:00,84.9,49.1,29.97,NE,43,5.8,5.8,29,0.00,,,0.00,WeatherDisplay:10.36,2013-06-18 17:38:00,
2013-06-18 12:43:00,84.9,49.1,29.97,NE,44,8.1,8.1,29,0.00,,,0.00,WeatherDisplay:10.36,2013-06-18 17:43:00,
2013-06-18 12:48:00,85.1,48.3,30.74,NE,44,4.9,4.9,28,0.00,,,0.00,WeatherDisplay:10.36,2013-06-18 17:48:00,
2013-06-18 12:53:00,85.3,46.5,30.74,North,351,8.1,8.1,26,0.00,,,0.00,WeatherDisplay:10.36,2013-06-18 17:53:00,
2013-06-18 12:58:00,85.5,45.6,30.74,North,351,10.9,10.9,25,0.00,,,0.00,WeatherDisplay:10.36,2013-06-18 17:58:00,
2013-06-18 13:03:00,85.8,48.9,29.97,NE,44,5.4,5.4,28,0.00,,,0.00,WeatherDisplay:10.36,2013-06-18 18:03:00,
2013-06-18 13:08:00,86.4,47.4,29.97,NE,40,4.6,4.6,26,0.00,,,0.00,WeatherDisplay:10.36,2013-06-18 18:08:00,
2013-06-18 13:13:00,86.5,48.6,29.97,North,351,3.5,0.0,27,0.00,,,0.00,WeatherDisplay:10.36,2013-06-18 18:13:00,
2013-06-18 13:18:00,86.7,45.6,30.76,NE,42,6.9,6.9,24,0.00,,,0.00,WeatherDisplay:10.36,2013-06-18 18:18:00,
2013-06-18 13:23:00,86.5,47.6,30.76,NE,42,7.8,0.0,26,0.00,,,0.00,WeatherDisplay:10.36,2013-06-18 18:23:00,
2013-06-18 13:28:00,86.0,43.9,30.76,North,351,6.9,6.9,23,0.00,,,0.00,WeatherDisplay:10.36,2013-06-18 18:28:00,
2013-06-18 13:33:00,85.6,45.8,29.94,NE,39,0.0,0.0,25,0.00,,,0.00,WeatherDisplay:10.36,2013-06-18 18:33:00,
2013-06-18 13:38:00,85.8,48.9,29.94,NE,41,0.0,0.0,28,0.00,,,0.00,WeatherDisplay:10.36,2013-06-18 18:38:00,
2013-06-18 13:43:00,85.8,48.0,29.94,NE,40,0.0,0.0,27,0.00,,,0.00,WeatherDisplay:10.36,2013-06-18 18:43:00,
2013-06-18 13:48:00,85.6,48.8,29.94,SW,221,4.6,0.0,28,0.00,,,0.00,WeatherDisplay:10.36,2013-06-18 18:48:00,
2013-06-18 13:53:00,85.5,48.6,29.94,NE,43,4.5,0.0,28,0.00,,,0.00,WeatherDisplay:10.36,2013-06-18 18:53:00,
2013-06-18 13:58:00,85.5,49.6,29.94,NE,43,0.0,0.0,29,0.00,,,0.00,WeatherDisplay:10.36,2013-06-18 18:58:00,
2013-06-18 14:03:00,85.8,48.9,29.97,NE,41,0.0,0.0,28,0.00,,,0.00,WeatherDisplay:10.36,2013-06-18 19:03:00,
2013-06-18 14:08:00,85.8,48.9,29.97,NE,45,4.0,0.0,28,0.00,,,0.00,WeatherDisplay:10.36,2013-06-18 19:08:00,
2013-06-18 14:13:00,85.6,48.8,29.97,NE,42,3.6,3.6,28,0.00,,,0.00,WeatherDisplay:10.36,2013-06-18 19:13:00,
2013-06-18 14:18:00,86.0,50.0,29.97,NE,44,4.5,0.0,29,0.00,,,0.00,WeatherDisplay:10.36,2013-06-18 19:18:00,
2013-06-18 14:23:00,86.4,50.3,29.97,NE,41,3.5,0.0,29,0.00,,,0.00,WeatherDisplay:10.36,2013-06-18 19:23:00,
2013-06-18 14:28:00,86.7,50.7,29.97,NE,43,3.1,0.0,29,0.00,,,0.00,WeatherDisplay:10.36,2013-06-18 19:28:00,
2013-06-18 14:33:00,87.1,50.0,29.97,NE,43,3.5,0.0,28,0.00,,,0.00,WeatherDisplay:10.36,2013-06-18 19:33:00,
2013-06-18 14:38:00,87.3,50.2,29.97,NE,42,0.0,0.0,28,0.00,,,0.00,WeatherDisplay:10.36,2013-06-18 19:38:00,
2013-06-18 14:43:00,87.6,50.5,29.97,NE,42,4.0,0.0,28,0.00,,,0.00,WeatherDisplay:10.36,2013-06-18 19:43:00,
2013-06-18 14:48:00,87.3,49.2,29.97,NE,42,0.0,0.0,27,0.00,,,0.00,WeatherDisplay:10.36,2013-06-18 19:48:00,
2013-06-18 14:53:00,86.9,49.9,29.97,NE,40,0.0,0.0,28,0.00,,,0.00,WeatherDisplay:10.36,2013-06-18 19:53:00,
2013-06-18 14:58:00,86.7,49.7,29.97,NE,40,0.0,0.0,28,0.00,,,0.00,WeatherDisplay:10.36,2013-06-18 19:58:00,
2013-06-18 15:03:00,86.7,49.7,29.97,NE,41,3.5,0.0,28,0.00,,,0.00,WeatherDisplay:10.36,2013-06-18 20:03:00,
2013-06-18 15:08:00,86.7,49.7,29.97,North,351,0.0,0.0,28,0.00,,,0.00,WeatherDisplay:10.36,2013-06-18 20:08:00,
2013-06-18 15:13:00,86.5,49.6,29.97,North,351,0.0,0.0,28,0.00,,,0.00,WeatherDisplay:10.36,2013-06-18 20:13:00,
2013-06-18 15:18:00,86.4,49.4,29.97,NNE,28,0.0,0.0,28,0.00,,,0.00,WeatherDisplay:10.36,2013-06-18 20:18:00,
2013-06-18 15:23:00,86.4,50.3,29.97,NNE,28,0.0,0.0,29,0.00,,,0.00,WeatherDisplay:10.36,2013-06-18 20:23:00,
2013-06-18 15:28:00,86.4,50.3,29.97,NE,41,0.0,0.0,29,0.00,,,0.00,WeatherDisplay:10.36,2013-06-18 20:28:00,
2013-06-18 15:33:00,85.8,49.9,29.97,NE,41,4.9,4.9,29,0.00,,,0.00,WeatherDisplay:10.36,2013-06-18 20:33:00,
2013-06-18 15:38:00,85.5,49.6,29.97,NE,42,0.0,0.0,29,0.00,,,0.00,WeatherDisplay:10.36,2013-06-18 20:38:00,
2013-06-18 15:43:00,85.5,49.6,29.97,NE,41,5.4,5.4,29,0.00,,,0.00,WeatherDisplay:10.36,2013-06-18 20:43:00,
2013-06-18 15:48:00,84.9,50.0,29.94,NE,43,0.0,0.0,30,0.00,,,0.00,WeatherDisplay:10.36,2013-06-18 20:48:00,
2013-06-18 15:53:00,84.9,50.0,29.94,West,263,0.0,0.0,30,0.00,,,0.00,WeatherDisplay:10.36,2013-06-18 20:53:00,
2013-06-18 15:58:00,84.9,50.0,29.94,NE,41,6.9,6.9,30,0.00,,,0.00,WeatherDisplay:10.36,2013-06-18 20:58:00,
2013-06-18 16:03:00,84.6,49.7,29.97,North,351,4.9,4.9,30,0.00,,,0.00,WeatherDisplay:10.36,2013-06-18 21:03:00,
2013-06-18 16:09:00,84.6,50.6,29.97,North,351,3.6,3.6,31,0.00,,,0.00,WeatherDisplay:10.36,2013-06-18 21:09:00,
2013-06-18 16:14:00,84.6,49.7,29.97,NE,41,2.3,0.0,30,0.00,,,0.00,WeatherDisplay:10.36,2013-06-18 21:14:00,
2013-06-18 16:19:00,84.9,50.0,29.94,NE,39,4.9,4.9,30,0.00,,,0.00,WeatherDisplay:10.36,2013-06-18 21:19:00,
2013-06-18 16:24:00,84.9,49.1,29.94,North,351,7.4,7.4,29,0.00,,,0.00,WeatherDisplay:10.36,2013-06-18 21:24:00,
2013-06-18 16:29:00,84.6,48.8,29.94,West,280,8.3,8.3,29,0.00,,,0.00,WeatherDisplay:10.36,2013-06-18 21:29:00,
2013-06-18 16:34:00,84.4,48.6,29.94,NE,43,0.0,0.0,29,0.00,,,0.00,WeatherDisplay:10.36,2013-06-18 21:34:00,
2013-06-18 16:39:00,84.4,48.6,29.94,NE,43,2.7,0.0,29,0.00,,,0.00,WeatherDisplay:10.36,2013-06-18 21:39:00,
2013-06-18 16:44:00,84.2,48.5,29.94,NE,39,5.8,0.0,29,0.00,,,0.00,WeatherDisplay:10.36,2013-06-18 21:44:00,
2013-06-18 16:49:00,84.0,48.3,30.76,NE,40,0.0,0.0,29,0.00,,,0.00,WeatherDisplay:10.36,2013-06-18 21:49:00,
2013-06-18 16:54:00,84.2,49.4,30.76,North,351,5.4,0.0,30,0.00,,,0.00,WeatherDisplay:10.36,2013-06-18 21:54:00,
2013-06-18 16:59:00,84.0,51.0,30.76,NNE,32,6.3,0.0,32,0.00,,,0.00,WeatherDisplay:10.36,2013-06-18 21:59:00,
2013-06-18 17:04:00,83.5,52.2,30.76,NE,41,5.8,0.0,34,0.00,,,0.00,WeatherDisplay:10.36,2013-06-18 22:04:00,
2013-06-18 17:09:00,83.1,51.8,30.76,NNE,28,7.4,7.4,34,0.00,,,0.00,WeatherDisplay:10.36,2013-06-18 22:09:00,
2013-06-18 17:14:00,82.9,50.9,30.76,North,351,6.9,6.9,33,0.00,,,0.00,WeatherDisplay:10.36,2013-06-18 22:14:00,
2013-06-18 17:19:00,82.8,49.9,30.74,NNE,29,7.4,7.4,32,0.00,,,0.00,WeatherDisplay:10.36,2013-06-18 22:19:00,
2013-06-18 17:24:00,82.6,48.9,30.74,NE,41,4.6,4.6,31,0.00,,,0.00,WeatherDisplay:10.36,2013-06-18 22:24:00,
2013-06-18 17:29:00,82.8,50.7,30.74,NE,42,0.0,0.0,33,0.00,,,0.00,WeatherDisplay:10.36,2013-06-18 22:29:00,
2013-06-18 17:34:00,82.9,50.9,29.94,NE,44,0.0,0.0,33,0.00,,,0.00,WeatherDisplay:10.36,2013-06-18 22:34:00,
2013-06-18 17:39:00,82.9,50.0,29.94,North,351,0.0,0.0,32,0.00,,,0.00,WeatherDisplay:10.36,2013-06-18 22:39:00,
2013-06-18 17:44:00,82.9,49.2,29.94,WSW,245,7.8,7.8,31,0.00,,,0.00,WeatherDisplay:10.36,2013-06-18 22:44:00,
2013-06-18 17:49:00,82.6,49.7,29.94,North,351,6.9,6.9,32,0.00,,,0.00,WeatherDisplay:10.36,2013-06-18 22:49:00,
2013-06-18 17:54:00,82.2,49.4,29.94,North,351,3.6,3.6,32,0.00,,,0.00,WeatherDisplay:10.36,2013-06-18 22:54:00,
2013-06-18 17:59:00,82.0,49.3,29.94,North,351,0.0,0.0,32,0.00,,,0.00,WeatherDisplay:10.36,2013-06-18 22:59:00,
2013-06-18 18:04:00,82.0,49.3,30.76,North,351,0.0,0.0,32,0.00,,,0.00,WeatherDisplay:10.36,2013-06-18 23:04:00,
2013-06-18 18:09:00,82.2,50.2,30.76,NE,41,0.0,0.0,33,0.00,,,0.00,WeatherDisplay:10.36,2013-06-18 23:09:00,
2013-06-18 18:14:00,82.4,50.4,30.76,NE,41,0.0,0.0,33,0.00,,,0.00,WeatherDisplay:10.36,2013-06-18 23:14:00,
2013-06-18 18:19:00,82.4,50.4,29.94,North,351,2.7,0.0,33,0.00,,,0.00,WeatherDisplay:10.36,2013-06-18 23:19:00,
2013-06-18 18:24:00,82.2,49.4,29.94,NE,39,2.3,0.0,32,0.00,,,0.00,WeatherDisplay:10.36,2013-06-18 23:24:00,
2013-06-18 18:29:00,82.0,50.1,29.94,NE,40,2.7,0.0,33,0.00,,,0.00,WeatherDisplay:10.36,2013-06-18 23:29:00,
2013-06-18 18:34:00,81.9,49.9,29.94,North,351,3.5,3.5,33,0.00,,,0.00,WeatherDisplay:10.36,2013-06-18 23:34:00,
2013-06-18 18:39:00,81.9,50.7,29.94,North,351,4.6,0.0,34,0.00,,,0.00,WeatherDisplay:10.36,2013-06-18 23:39:00,
2013-06-18 18:44:00,81.7,51.4,29.94,North,351,0.0,0.0,35,0.00,,,0.00,WeatherDisplay:10.36,2013-06-18 23:44:00,
2013-06-18 18:49:00,81.3,51.0,30.76,North,351,3.5,3.5,35,0.00,,,0.00,WeatherDisplay:10.36,2013-06-18 23:49:00,
2013-06-18 18:54:00,81.1,51.7,30.76,NE,41,4.0,0.0,36,0.00,,,0.00,WeatherDisplay:10.36,2013-06-18 23:54:00,
2013-06-18 18:59:00,81.1,50.9,30.76,West,263,4.0,4.0,35,0.00,,,0.00,WeatherDisplay:10.36,2013-06-18 23:59:00,
2013-06-18 19:04:00,81.0,51.5,30.74,North,351,4.0,4.0,36,0.00,,,0.00,WeatherDisplay:10.36,2013-06-19 00:04:00,
2013-06-18 19:09:00,81.0,52.2,30.74,North,351,4.6,0.0,37,0.00,,,0.00,WeatherDisplay:10.36,2013-06-19 00:09:00,
2013-06-18 19:14:00,80.8,52.1,30.74,NE,41,0.0,0.0,37,0.00,,,0.00,WeatherDisplay:10.36,2013-06-19 00:14:00,
2013-06-18 19:19:00,80.8,53.5,29.94,NE,42,0.0,0.0,39,0.00,,,0.00,WeatherDisplay:10.36,2013-06-19 00:19:00,
2013-06-18 19:24:00,80.8,51.3,29.94,North,351,4.6,4.6,36,0.00,,,0.00,WeatherDisplay:10.36,2013-06-19 00:24:00,
2013-06-18 19:29:00,80.8,54.2,29.94,North,351,0.0,0.0,40,0.00,,,0.00,WeatherDisplay:10.36,2013-06-19 00:29:00,
2013-06-18 19:34:00,80.8,54.2,30.76,North,351,0.0,0.0,40,0.00,,,0.00,WeatherDisplay:10.36,2013-06-19 00:34:00,
2013-06-18 19:39:00,80.6,54.0,30.76,WSW,257,0.0,0.0,40,0.00,,,0.00,WeatherDisplay:10.36,2013-06-19 00:39:00,
2013-06-18 19:44:00,80.6,51.9,30.76,NE,41,0.0,0.0,37,0.00,,,0.00,WeatherDisplay:10.36,2013-06-19 00:44:00,
2013-06-18 19:49:00,80.4,53.2,29.94,NE,41,0.0,0.0,39,0.00,,,0.00,WeatherDisplay:10.36,2013-06-19 00:49:00,
2013-06-18 19:54:00,80.4,53.2,29.94,NE,41,0.0,0.0,39,0.00,,,0.00,WeatherDisplay:10.36,2013-06-19 00:54:00,
2013-06-18 19:59:00,80.2,53.7,29.94,NE,41,0.0,0.0,40,0.00,,,0.00,WeatherDisplay:10.36,2013-06-19 00:59:00,
2013-06-18 20:04:00,80.1,54.2,29.94,NE,42,0.0,0.0,41,0.00,,,0.00,WeatherDisplay:10.36,2013-06-19 01:04:00,
2013-06-18 20:09:00,79.9,54.1,29.94,NE,41,0.0,0.0,41,0.00,,,0.00,WeatherDisplay:10.36,2013-06-19 01:09:00,
2013-06-18 20:14:00,79.7,54.6,29.94,NE,42,0.0,0.0,42,0.00,,,0.00,WeatherDisplay:10.36,2013-06-19 01:14:00,
2013-06-18 20:19:00,79.3,54.3,29.94,NE,41,0.0,0.0,42,0.00,,,0.00,WeatherDisplay:10.36,2013-06-19 01:19:00,
2013-06-18 20:24:00,79.2,54.7,29.94,NE,42,0.0,0.0,43,0.00,,,0.00,WeatherDisplay:10.36,2013-06-19 01:24:00,
2013-06-18 20:29:00,79.0,55.2,29.94,NE,42,0.0,0.0,44,0.00,,,0.00,WeatherDisplay:10.36,2013-06-19 01:29:00,
2013-06-18 20:34:00,78.6,54.9,29.94,NE,42,0.0,0.0,44,0.00,,,0.00,WeatherDisplay:10.36,2013-06-19 01:34:00,
2013-06-18 20:39:00,78.4,54.7,29.94,NE,42,0.0,0.0,44,0.00,,,0.00,WeatherDisplay:10.36,2013-06-19 01:39:00,
2013-06-18 20:44:00,78.3,55.2,29.94,NE,41,0.0,0.0,45,0.00,,,0.00,WeatherDisplay:10.36,2013-06-19 01:44:00,
2013-06-18 20:49:00,78.1,55.0,29.94,NE,42,0.0,0.0,45,0.00,,,0.00,WeatherDisplay:10.36,2013-06-19 01:49:00,
2013-06-18 20:54:00,77.9,55.5,29.94,NE,42,0.0,0.0,46,0.00,,,0.00,WeatherDisplay:10.36,2013-06-19 01:54:00,
2013-06-18 20:59:00,77.7,55.9,29.94,NE,42,0.0,0.0,47,0.00,,,0.00,WeatherDisplay:10.36,2013-06-19 01:59:00,
2013-06-18 21:04:00,77.5,55.7,29.97,NE,42,0.0,0.0,47,0.00,,,0.00,WeatherDisplay:10.36,2013-06-19 02:04:00,
2013-06-18 21:09:00,77.4,55.6,29.97,NE,42,0.0,0.0,47,0.00,,,0.00,WeatherDisplay:10.36,2013-06-19 02:09:00,
2013-06-18 21:14:00,77.2,56.0,29.97,NE,41,0.0,0.0,48,0.00,,,0.00,WeatherDisplay:10.36,2013-06-19 02:14:00,
2013-06-18 21:19:00,76.8,55.6,29.97,NE,41,0.0,0.0,48,0.00,,,0.00,WeatherDisplay:10.36,2013-06-19 02:19:00,
2013-06-18 21:24:00,76.8,56.2,29.97,NE,42,0.0,0.0,49,0.00,,,0.00,WeatherDisplay:10.36,2013-06-19 02:24:00,
2013-06-18 21:29:00,76.6,56.0,29.97,NE,41,0.0,0.0,49,0.00,,,0.00,WeatherDisplay:10.36,2013-06-19 02:29:00,
2013-06-18 21:34:00,76.3,55.7,29.97,NE,42,0.0,0.0,49,0.00,,,0.00,WeatherDisplay:10.36,2013-06-19 02:34:00,
2013-06-18 21:39:00,76.3,55.7,29.97,NE,42,0.0,0.0,49,0.00,,,0.00,WeatherDisplay:10.36,2013-06-19 02:39:00,
2013-06-18 21:44:00,76.1,56.1,29.97,NE,42,0.0,0.0,50,0.00,,,0.00,WeatherDisplay:10.36,2013-06-19 02:44:00,
2013-06-18 21:49:00,75.9,55.9,29.97,NE,42,0.0,0.0,50,0.00,,,0.00,WeatherDisplay:10.36,2013-06-19 02:49:00,
2013-06-18 21:54:00,75.7,56.3,29.97,NE,42,0.0,0.0,51,0.00,,,0.00,WeatherDisplay:10.36,2013-06-19 02:54:00,
2013-06-18 21:59:00,75.6,56.2,29.97,NE,42,0.0,0.0,51,0.00,,,0.00,WeatherDisplay:10.36,2013-06-19 02:59:00,
2013-06-18 22:04:00,75.4,56.0,29.97,NE,42,0.0,0.0,51,0.00,,,0.00,WeatherDisplay:10.36,2013-06-19 03:04:00,
2013-06-18 22:09:00,75.4,56.0,29.97,NE,42,0.0,0.0,51,0.00,,,0.00,WeatherDisplay:10.36,2013-06-19 03:09:00,
2013-06-18 22:14:00,75.2,56.4,29.97,NE,42,0.0,0.0,52,0.00,,,0.00,WeatherDisplay:10.36,2013-06-19 03:14:00,
2013-06-18 22:19:00,75.0,56.2,29.97,NE,42,0.0,0.0,52,0.00,,,0.00,WeatherDisplay:10.36,2013-06-19 03:19:00,
2013-06-18 22:25:00,74.8,56.6,29.97,NE,42,0.0,0.0,53,0.00,,,0.00,WeatherDisplay:10.36,2013-06-19 03:25:00,
2013-06-18 22:30:00,74.8,56.6,29.97,NE,42,0.0,0.0,53,0.00,,,0.00,WeatherDisplay:10.36,2013-06-19 03:30:00,
2013-06-18 22:35:00,74.7,56.4,29.97,NE,42,0.0,0.0,53,0.00,,,0.00,WeatherDisplay:10.36,2013-06-19 03:35:00,
2013-06-18 22:40:00,74.5,56.7,29.97,NE,42,0.0,0.0,54,0.00,,,0.00,WeatherDisplay:10.36,2013-06-19 03:40:00,
2013-06-18 22:45:00,74.5,56.7,29.97,NE,42,0.0,0.0,54,0.00,,,0.00,WeatherDisplay:10.36,2013-06-19 03:45:00,
2013-06-18 22:50:00,74.3,57.1,29.97,NE,42,0.0,0.0,55,0.00,,,0.00,WeatherDisplay:10.36,2013-06-19 03:50:00,
2013-06-18 22:55:00,74.1,56.9,29.97,NE,42,0.0,0.0,55,0.00,,,0.00,WeatherDisplay:10.36,2013-06-19 03:55:00,
2013-06-18 23:00:00,73.9,57.3,29.97,NE,42,0.0,0.0,56,0.00,,,0.00,WeatherDisplay:10.36,2013-06-19 04:00:00,
2013-06-18 23:01:00,73.9,57.3,29.97,NE,42,0.0,0.0,56,0.00,,,0.00,WeatherDisplay:10.36,2013-06-19 04:01:00,
2013-06-18 23:03:00,73.8,57.1,29.97,NE,42,0.0,0.0,56,0.00,,,0.00,WeatherDisplay:10.36,2013-06-19 04:03:00,
2013-06-18 23:05:00,73.8,57.6,29.97,NE,42,0.0,0.0,57,0.00,,,0.00,WeatherDisplay:10.36,2013-06-19 04:05:00,
2013-06-18 23:06:00,73.8,57.6,29.97,NE,42,0.0,0.0,57,0.00,,,0.00,WeatherDisplay:10.36,2013-06-19 04:06:00,
2013-06-18 23:11:00,73.6,57.4,29.97,NE,42,0.0,0.0,57,0.00,,,0.00,WeatherDisplay:10.36,2013-06-19 04:11:00,
2013-06-18 23:16:00,73.6,57.9,29.97,NE,42,0.0,0.0,58,0.00,,,0.00,WeatherDisplay:10.36,2013-06-19 04:16:00,
2013-06-18 23:21:00,73.4,58.2,29.97,NE,42,0.0,0.0,59,0.00,,,0.00,WeatherDisplay:10.36,2013-06-19 04:21:00,
2013-06-18 23:26:00,73.2,58.0,29.97,NE,42,0.0,0.0,59,0.00,,,0.00,WeatherDisplay:10.36,2013-06-19 04:26:00,
2013-06-18 23:31:00,73.2,58.5,29.97,NE,42,0.0,0.0,60,0.00,,,0.00,WeatherDisplay:10.36,2013-06-19 04:31:00,
2013-06-18 23:36:00,73.0,58.3,29.97,NE,42,0.0,0.0,60,0.00,,,0.00,WeatherDisplay:10.36,2013-06-19 04:36:00,
2013-06-18 23:41:00,72.9,58.6,29.97,NE,42,0.0,0.0,61,0.00,,,0.00,WeatherDisplay:10.36,2013-06-19 04:41:00,
2013-06-18 23:46:00,72.9,58.6,29.97,NE,42,0.0,0.0,61,0.00,,,0.00,WeatherDisplay:10.36,2013-06-19 04:46:00,
2013-06-18 23:51:00,72.7,58.9,29.97,NE,42,0.0,0.0,62,0.00,,,0.00,WeatherDisplay:10.36,2013-06-19 04:51:00,
2013-06-18 23:56:00,72.7,58.9,29.97,NE,42,0.0,0.0,62,0.00,,,0.00,WeatherDisplay:10.36,2013-06-19 04:56:00,